Regional Weather Roundup
Issued by NWS

Home | Current Version | Previous Version | Graphics & Text | Print | Product List | Glossary On
Versions: 1 2 3 4 5 6 7 8 9 10 11 12 13 14 15 16 17 18 19 20 21 22 23 24 25 26 27 28 29 30 31 32 33 34 35 36 37 38 39 40 41 42 43 44 45 46
000
ASUS43 KDMX 301907
RWRIA

WEATHER ROUNDUP FOR IOWA
NATIONAL WEATHER SERVICE DES MOINES IA
200 PM CDT WED JUL 30 2014

NOTE: "FAIR" INDICATES FEW OR NO CLOUDS BELOW 12,000 FEET WITH NO
SIGNIFICANT WEATHER AND/OR OBSTRUCTIONS TO VISIBILITY.

* - THESE STATIONS ARE NOT NWS STATIONS...THUS NOT UNDER NWS
QUALITY CONTROL.  THEY ALSO DO NOT REPORT WEATHER SUCH
AS PRECIPITATION OR FOG.

IAZ001>003-012>014-020>022-031>034-043>046-302000-
   NORTHWEST IOWA

CITY           SKY/WX    TMP DP  RH WIND       PRES   REMARKS
CARROLL *      MOSUNNY   75  55  50 VRB6      30.13S
CHEROKEE *     MOSUNNY   77  55  47 N6        30.14S
DENISON *      MOSUNNY   75  54  46 NW6       30.12F
LE MARS *      MOSUNNY   77  54  44 CALM      30.15S
ORANGE CITY *  MOSUNNY   75  48  38 CALM      30.15F
SHELDON *      MOSUNNY   75  55  50 N3G12     30.14S
SIOUX CITY     PTSUNNY   77  55  46 CALM      30.14S
SPENCER        MOSUNNY   77  52  41 VRB6      30.14F
STORM LAKE *   SUNNY     75  57  53 VRB6      30.15F
$$

IAZ055>058-069>071-079>083-090>094-302000-
   SOUTHWEST IOWA

CITY           SKY/WX    TMP DP  RH WIND       PRES   REMARKS
ATLANTIC *     MOSUNNY   77  55  47 N8        30.12F
AUDUBON *      MOSUNNY   81  55  41 NE6       30.15S HX  80
CLARINDA *     MOSUNNY   79  55  44 VRB6      30.14S
COUNCIL BLFS * MOSUNNY   77  54  44 VRB3      30.13S
CRESTON *      PTSUNNY   75  54  46 NW6       30.13F
HARLAN  *      MOSUNNY   75  55  50 N3G14     30.17S
LAMONI         PTSUNNY   76  55  48 N8        30.12F
RED OAK *      SUNNY     79  55  44 E5G13     30.13F
SHENANDOAH *   PTSUNNY   77  57  50 N7        30.14S
$$

IAZ047>049-059>061-072>074-084-302000-
   CENTRAL IOWA

CITY           SKY/WX    TMP DP  RH WIND       PRES   REMARKS
AMES           PTSUNNY   79  55  43 N6        30.10F
ANKENY *       MOSUNNY   77  54  44 VRB5G13   30.11S
CHARITON *     SUNNY     77  54  44 N7        30.11F
DES MOINES     MOSUNNY   81  54  39 VRB3      30.10F HX  81
GRINNELL*      MOSUNNY   77  59  53 NW6       30.10F
KNOXVILLE *    MOSUNNY   77  55  47 N9        30.10S
MARSHALLTOWN   MOSUNNY   78  56  46 NW9       30.10S
PELLA *        MOSUNNY   77  59  53 NW6       30.11S
PERRY *          N/A     75  55  50 CALM      30.13S
$$

IAZ004>006-015-016-023>025-035-036-302000-
   NORTH CENTRAL IOWA

CITY           SKY/WX    TMP DP  RH WIND       PRES   REMARKS
ALGONA *       MOSUNNY   75  55  50 NW7       30.13S
CLARION *      MOSUNNY   75  57  53 VRB5      30.11F
ESTHERVILLE    MOSUNNY   76  55  48 N7        30.13F
FORT DODGE *   MOSUNNY   75  55  50 CALM      30.12F
MASON CITY     MOSUNNY   78  57  48 NW9       30.11F
FOREST CITY *  PTSUNNY   77  57  50 NE7       30.11S
IOWA FALLS *   PTSUNNY   75  55  50 CALM      30.11F
$$

IAZ007>011-017>019-026>030-037>042-050>054-066-302000-
   NORTHEAST IOWA

CITY           SKY/WX    TMP DP  RH WIND       PRES   REMARKS
CEDAR RAPIDS   MOSUNNY   78  59  51 W10       30.07F
CHARLES CITY * MOSUNNY   77  59  53 NW7G15    30.10S
CLINTON *      PTSUNNY   75  61  60 W8        30.09S
DECORAH *      MOSUNNY   75  59  57 VRB7      30.07F
DUBUQUE        MOSUNNY   76  59  55 NW7       30.07F
MONTICELLO *   PTSUNNY   77  61  57 NW8G14    30.06F
OELWEIN *      MOSUNNY   77  59  53 NW8       30.09S
WATERLOO       MOSUNNY   81  57  43 N12       30.07F HX  81
$$

IAZ064-065-067-068-078-302000-
   EAST CENTRAL IOWA

CITY           SKY/WX    TMP DP  RH WIND       PRES   REMARKS
DAVENPORT      PTSUNNY   77  59  53 NW9       30.07F
IOWA CITY      SUNNY     78  58  49 NW8       30.08F
MT. PLEASANT * MOSUNNY   79  55  44 NW5       30.09S
MUSCATINE *    SUNNY     81  57  44 NW10      30.07S HX  81
QUAD CITIES    MOSUNNY   81  59  47 NW7       30.05F HX  81
$$

IAZ062-063-075>077-085>089-095>099-302000-
   SOUTHEAST IOWA

CITY           SKY/WX    TMP DP  RH WIND       PRES   REMARKS
BURLINGTON     MOSUNNY   79  57  46 NW7       30.08S HX  80
FAIRFIELD *    MOSUNNY   77  61  57 W6        30.09F
FORT MADISON * SUNNY     81  59  47 NW5       30.09F HX  81
KEOKUK *       MOSUNNY   77  59  53 N7G13     30.08S
OSKALOOSA *      N/A     77  61  57 NW8       30.10S
CENTERVILLE *  SUNNY     77  55  47 NW5       30.12F
OTTUMWA        MOSUNNY   78  59  51 NW7       30.10S
WASHINGTON *   MOSUNNY   77  61  57 NW8G14    30.08F
$$

ABBREVIATIONS USED IN REMARKS
   TC - TEMPERATURES IN CELSIUS
  WCI - WIND CHILL INDEX
   HX - HEAT INDEX
  VSB - VISIBILITY
$$




USA.gov is the U.S. government's official web portal to all federal, state and local government web resources and services.